Jackson, MI

1:07 PM EST on December 09, 2016 (GMT -0500)
Jackson County-Reynolds

Weather History for KJXN - December, 2012

Change the Weather History Date:

Wednesday, December 12, 2012

  Actual Average Record
Temperature  
Mean Temperature 34 °F 29 °F  
Max Temperature 42 °F 35 °F 62 °F (1949)
Min Temperature 25 °F 22 °F -9 °F (1962)
Degree Days  
Heating Degree Days 31 36  
Month to date heating degree days 311 408  
Since 1 July heating degree days 1749 1812  
Cooling Degree Days 0 0  
Month to date cooling degree days 0 0  
Year to date cooling degree days 873 592  
Moisture  
Dew Point 21 °F    
Average Humidity 62    
Maximum Humidity 81    
Minimum Humidity 43    
Precipitation  
Precipitation 0.00 in 0.05 in 0.94 in (1972)
Month to date precipitation 0.92 0.77  
Year to date precipitation 24.22 30.40  
Sea Level Pressure  
Sea Level Pressure 30.31 in    
Wind  
Wind Speed 9 mph (SW)    
Max Wind Speed 16 mph    
Max Gust Speed 21 mph    
Visibility 10 miles    
Events      
T = Trace of Precipitation, MM = Missing Value Source: NWS Daily Summary

Daily Weather History Graph

Daily Weather History Graph

Search for Another Location

Airport or City:

Trip Planner

Search our weather history database for the weather conditions in past years. The results will help you decide how hot, cold, wet, or windy it might be!

Date:

Astronomy

Dec. 12, 2012 Rise Set
Actual Time 7:57 AM EST 5:05 PM EST
Civil Twilight 7:26 AM EST 5:37 PM EST
Nautical Twilight 6:50 AM EST 6:12 PM EST
Astronomical Twilight 6:16 AM EST 6:47 PM EST
Moon 7:00 AM EST (12/12) 4:42 PM EST (12/12)
Length of Visible Light 10h 11m
Length of Day
9h 07m
Waning Crescent, 1% of the Moon is Illuminated
Dec 12
Waning Crescent
Dec 13
New
Dec 20
First Quarter
Dec 28
Full
Jan 4
Last Quarter

Hourly Weather History & Observations

Time (EST) Temp. Windchill Dew Point Humidity Pressure Visibility Wind Dir Wind Speed Gust Speed Precip Events Conditions
12:56 AM 28.0 °F 19.3 °F 21.0 °F 75% 30.17 in 10.0 mi SW 9.2 mph - N/A   Clear
1:56 AM 27.0 °F 18.0 °F 21.0 °F 78% 30.19 in 10.0 mi SW 9.2 mph - N/A   Clear
2:56 AM 27.0 °F 16.7 °F 21.0 °F 78% 30.21 in 10.0 mi SW 11.5 mph - N/A   Clear
3:56 AM 27.0 °F 18.0 °F 21.0 °F 78% 30.23 in 10.0 mi SW 9.2 mph - N/A   Scattered Clouds
4:56 AM 26.1 °F 16.8 °F 21.0 °F 81% 30.24 in 10.0 mi SSW 9.2 mph - N/A   Clear
5:56 AM 26.1 °F 16.2 °F 21.0 °F 81% 30.25 in 10.0 mi SSW 10.4 mph - N/A   Partly Cloudy
6:56 AM 25.0 °F 16.3 °F 19.9 °F 81% 30.27 in 10.0 mi SSW 8.1 mph - N/A   Clear
7:56 AM 26.1 °F 16.8 °F 19.9 °F 78% 30.28 in 9.0 mi SW 9.2 mph - N/A   Clear
8:56 AM 28.0 °F 20.0 °F 21.0 °F 75% 30.31 in 10.0 mi SW 8.1 mph - N/A   Clear
9:56 AM 32.0 °F 23.6 °F 21.9 °F 66% 30.33 in 10.0 mi SW 10.4 mph - N/A   Clear
10:56 AM 36.0 °F 27.5 °F 21.9 °F 57% 30.35 in 10.0 mi WSW 12.7 mph - N/A   Clear
11:56 AM 39.0 °F 31.8 °F 21.0 °F 49% 30.35 in 10.0 mi WSW 11.5 mph - N/A   Clear
12:56 PM 41.0 °F 34.7 °F 21.0 °F 45% 30.34 in 10.0 mi West 10.4 mph - N/A   Clear
1:56 PM 42.1 °F 35.2 °F 21.9 °F 45% 30.33 in 10.0 mi SW 12.7 mph 18.4 mph N/A   Clear
2:56 PM 42.1 °F 36.1 °F 21.9 °F 45% 30.33 in 10.0 mi SW 10.4 mph - N/A   Clear
4:56 PM 37.0 °F 33.3 °F 21.0 °F 52% 30.34 in 10.0 mi SSW 4.6 mph - N/A   Clear
5:56 PM 35.1 °F 30.1 °F 21.9 °F 59% 30.35 in 10.0 mi South 5.8 mph - N/A   Clear
6:56 PM 34.0 °F 28.0 °F 21.9 °F 61% 30.36 in 10.0 mi South 6.9 mph - N/A   Clear
8:56 PM 32.0 °F 24.8 °F 23.0 °F 69% 30.37 in 10.0 mi South 8.1 mph - N/A   Clear
9:56 PM 30.0 °F 23.2 °F 21.9 °F 72% 30.38 in 10.0 mi South 6.9 mph - N/A   Clear
10:56 PM 30.0 °F 22.4 °F 23.0 °F 75% 30.37 in 10.0 mi South 8.1 mph - N/A   Clear
11:56 PM 30.9 °F 23.5 °F 21.9 °F 69% 30.36 in 10.0 mi South 8.1 mph - N/A   Clear